N8MS Weather Reports


Display with metric or nautical units.
time (UTC)temp
F
wind
direction
speed
MPH
gust
MPH
rain 1hr
in
rain 24hr
in
rain mn
in
humidity
%
barometer
mb
20260504201117 76 277 5.0 12.0 0.00 0.00 0.00 52 1000.5
20260504201008 76 262 6.0 12.0 0.00 0.00 0.00 51 1000.4
20260504200903 76 324 7.0 12.0 0.00 0.00 0.00 49 1000.4
20260504200815 76 247 7.0 12.0 0.00 0.00 0.00 50 1000.5
20260504200707 76 268 4.0 12.0 0.00 0.00 0.00 51 1000.4
20260504200617 76 244 3.0 15.0 0.00 0.00 0.00 52 1000.4
20260504200508 76 258 4.0 15.0 0.00 0.00 0.00 52 1000.4
20260504200418 76 292 5.0 15.0 0.00 0.00 0.00 50 1000.4
20260504200331 76 259 5.0 15.0 0.00 0.00 0.00 49 1000.5
20260504200200 76 299 5.0 15.0 0.00 0.00 0.00 49 1000.4
20260504200112 76 253 5.0 15.0 0.00 0.00 0.00 49 1000.3
20260504200033 76 319 5.0 15.0 0.00 0.00 0.00 49 1000.4
20260504195907 76 279 7.0 15.0 0.00 0.00 0.00 49 1000.4
20260504195816 77 296 8.0 15.0 0.00 0.00 0.00 48 1000.4
20260504195707 77 294 8.0 15.0 0.00 0.00 0.00 49 1000.4
20260504195619 77 296 8.0 15.0 0.00 0.00 0.00 48 1000.3
20260504195510 77 258 8.0 15.0 0.00 0.00 0.00 48 1000.4
20260504195400 77 249 9.0 15.0 0.00 0.00 0.00 48 1000.4
20260504195312 77 220 8.0 15.0 0.00 0.00 0.00 49 1000.4
20260504195203 77 246 7.0 15.0 0.00 0.00 0.00 48 1000.4
20260504195117 77 238 8.0 15.0 0.00 0.00 0.00 48 1000.4
20260504195008 77 236 8.0 15.0 0.00 0.00 0.00 50 1000.4
20260504194859 77 232 8.0 15.0 0.00 0.00 0.00 50 1000.5
20260504194810 77 225 8.0 15.0 0.00 0.00 0.00 49 1000.4
20260504194701 77 272 7.0 15.0 0.00 0.00 0.00 49 1000.4
20260504194611 77 218 7.0 15.0 0.00 0.00 0.00 49 1000.5
20260504194533 77 225 8.0 15.0 0.00 0.00 0.00 48 1000.5
20260504194424 77 261 9.0 15.0 0.00 0.00 0.00 49 1000.5
20260504194334 77 254 9.0 15.0 0.00 0.00 0.00 49 1000.5
20260504194209 77 221 7.0 14.0 0.00 0.00 0.00 49 1000.5
20260504194118 77 236 7.0 12.0 0.00 0.00 0.00 50 1000.5
20260504194009 77 239 7.0 12.0 0.00 0.00 0.00 50 1000.5
20260504193859 77 260 7.0 12.0 0.00 0.00 0.00 49 1000.4
20260504193810 77 242 8.0 12.0 0.00 0.00 0.00 48 1000.5
20260504193700 77 216 8.0 12.0 0.00 0.00 0.00 50 1000.5
20260504193611 77 208 7.0 12.0 0.00 0.00 0.00 49 1000.6
20260504193502 77 215 6.0 12.0 0.00 0.00 0.00 50 1000.5
20260504193414 77 270 6.0 12.0 0.00 0.00 0.00 51 1000.5
20260504193330 77 237 6.0 12.0 0.00 0.00 0.00 50 1000.5
20260504193219 77 265 5.0 12.0 0.00 0.00 0.00 50 1000.6
20260504193110 77 264 6.0 12.0 0.00 0.00 0.00 50 1000.6
20260504193031 77 253 6.0 12.0 0.00 0.00 0.00 50 1000.5
20260504192920 76 257 6.0 16.0 0.00 0.00 0.00 51 1000.5
20260504192832 76 309 6.0 16.0 0.00 0.00 0.00 52 1000.5
20260504192700 76 226 7.0 16.0 0.00 0.00 0.00 51 1000.6
20260504192612 76 169 7.0 16.0 0.00 0.00 0.00 51 1000.6
20260504192502 76 249 5.0 16.0 0.00 0.00 0.00 50 1000.6
20260504192413 76 198 5.0 16.0 0.00 0.00 0.00 50 1000.8
20260504192328 76 171 5.0 16.0 0.00 0.00 0.00 50 1000.7
20260504192239 76 238 6.0 16.0 0.00 0.00 0.00 51 1000.8
20260504192109 76 191 6.0 16.0 0.00 0.00 0.00 52 1000.8
20260504192019 76 217 6.0 16.0 0.00 0.00 0.00 52 1000.9
20260504191910 76 244 6.0 18.0 0.00 0.00 0.00 52 1000.9
20260504191800 76 218 4.0 18.0 0.00 0.00 0.00 52 1000.9
20260504191712 76 244 4.0 18.0 0.00 0.00 0.00 51 1000.9
20260504191602 76 269 6.0 18.0 0.00 0.00 0.00 50 1001.0
20260504191523 76 274 8.0 18.0 0.00 0.00 0.00 50 1001.0
20260504191417 76 252 8.0 18.0 0.00 0.00 0.00 51 1001.0
20260504191308 76 249 9.0 18.0 0.00 0.00 0.00 51 1001.0
20260504191218 76 236 9.0 18.0 0.00 0.00 0.00 51 1001.0
20260504191109 76 254 9.0 18.0 0.00 0.00 0.00 51 1001.1
20260504191021 75 237 8.0 18.0 0.00 0.00 0.00 50 1001.1
20260504190933 75 256 6.0 15.0 0.00 0.00 0.00 50 1001.1
20260504190843 75 243 6.0 15.0 0.00 0.00 0.00 51 1001.1
20260504190733 75 256 8.0 15.0 0.00 0.00 0.00 49 1001.1
20260504190604 76 233 9.0 15.0 0.00 0.00 0.00 48 1001.2
20260504190515 76 267 8.0 14.0 0.00 0.00 0.00 49 1001.1
20260504190411 76 238 6.0 14.0 0.00 0.00 0.00 51 1001.2
20260504190303 75 277 6.0 14.0 0.00 0.00 0.00 51 1001.2
20260504190212 75 249 6.0 14.0 0.00 0.00 0.00 51 1001.2
20260504190104 75 212 6.0 14.0 0.00 0.00 0.00 52 1001.2
20260504190026 75 227 7.0 14.0 0.00 0.00 0.00 52 1001.3
20260504185916 75 240 8.0 14.0 0.00 0.00 0.00 51 1001.3
20260504185807 75 220 9.0 14.0 0.00 0.00 0.00 52 1001.3
20260504185717 75 251 8.0 14.0 0.00 0.00 0.00 51 1001.3
20260504185611 75 243 6.0 14.0 0.00 0.00 0.00 53 1001.4
20260504185503 75 236 7.0 14.0 0.00 0.00 0.00 53 1001.4
20260504185413 75 250 8.0 14.0 0.00 0.00 0.00 53 1001.4
20260504185304 75 282 7.0 14.0 0.00 0.00 0.00 53 1001.3
20260504185213 75 234 7.0 12.0 0.00 0.00 0.00 52 1001.4
20260504185124 74 244 8.0 12.0 0.00 0.00 0.00 50 1001.4
20260504185012 74 146 9.0 13.0 0.00 0.00 0.00 52 1001.3
20260504184904 74 250 8.0 12.0 0.00 0.00 0.00 52 1001.3
20260504184814 74 255 7.0 13.0 0.00 0.00 0.00 53 1001.4
20260504184706 74 275 6.0 13.0 0.00 0.00 0.00 53 1001.4
20260504184600 74 244 8.0 13.0 0.00 0.00 0.00 50 1001.5
20260504184523 74 240 9.0 13.0 0.00 0.00 0.00 50 1001.5
20260504184413 74 244 7.0 13.0 0.00 0.00 0.00 53 1001.4
20260504184302 74 217 6.0 12.0 0.00 0.00 0.00 53 1001.4
20260504184215 74 247 7.0 12.0 0.00 0.00 0.00 51 1001.5
20260504184125 75 244 7.0 12.0 0.00 0.00 0.00 53 1001.5
20260504184015 75 238 6.0 13.0 0.00 0.00 0.00 53 1001.4
20260504183905 75 213 6.0 19.0 0.00 0.00 0.00 55 1001.5
20260504183817 75 246 6.0 19.0 0.00 0.00 0.00 53 1001.5
20260504183707 74 244 6.0 19.0 0.00 0.00 0.00 53 1001.5
20260504183622 74 235 6.0 19.0 0.00 0.00 0.00 53 1001.5
20260504183532 74 230 7.0 19.0 0.00 0.00 0.00 53 1001.6
20260504183403 74 252 8.0 19.0 0.00 0.00 0.00 53 1001.5
20260504183316 74 270 7.0 19.0 0.00 0.00 0.00 52 1001.5
20260504183206 74 258 6.0 19.0 0.00 0.00 0.00 54 1001.5
20260504183117 74 252 7.0 19.0 0.00 0.00 0.00 53 1001.5
20260504183039 74 275 8.0 19.0 0.00 0.00 0.00 52 1001.6
20260504182908 74 250 8.0 15.0 0.00 0.00 0.00 52 1001.7
20260504182800 74 244 8.0 12.0 0.00 0.00 0.00 52 1001.6
20260504182714 74 242 7.0 12.0 0.00 0.00 0.00 54 1001.6
20260504182625 74 244 7.0 15.0 0.00 0.00 0.00 54 1001.6
20260504182516 74 247 8.0 15.0 0.00 0.00 0.00 53 1001.7
20260504182406 74 223 8.0 15.0 0.00 0.00 0.00 52 1001.6
20260504182315 74 244 7.0 15.0 0.00 0.00 0.00 53 1001.7
20260504182206 74 258 8.0 15.0 0.00 0.00 0.00 54 1001.6
20260504182117 74 223 8.0 15.0 0.00 0.00 0.00 53 1001.7
20260504182028 74 222 8.0 15.0 0.00 0.00 0.00 52 1001.7
20260504181939 74 240 8.0 15.0 0.00 0.00 0.00 53 1001.6
20260504181808 74 250 8.0 15.0 0.00 0.00 0.00 52 1001.7
20260504181702 74 259 6.0 12.0 0.00 0.00 0.00 55 1001.7
20260504181614 74 230 5.0 9.0 0.00 0.00 0.00 53 1001.7
20260504181536 74 269 5.0 11.0 0.00 0.00 0.00 53 1001.7
20260504181427 74 178 5.0 11.0 0.00 0.00 0.00 54 1001.7
20260504181316 74 134 5.0 12.0 0.00 0.00 0.00 55 1001.8
20260504181208 74 248 5.0 12.0 0.00 0.00 0.00 55 1001.8
20260504181100 74 241 4.0 12.0 0.00 0.00 0.00 56 1001.8
20260504181011 74 242 5.0 12.0 0.00 0.00 0.00 53 1001.8
20260504180903 74 242 6.0 12.0 0.00 0.00 0.00 54 1001.8
20260504180818 74 244 7.0 12.0 0.00 0.00 0.00 54 1001.8
20260504180708 74 255 7.0 12.0 0.00 0.00 0.00 57 1001.9
20260504180600 74 228 8.0 12.0 0.00 0.00 0.00 54 1001.8
20260504180511 74 221 9.0 12.0 0.00 0.00 0.00 54 1001.9
20260504180400 73 232 9.0 14.0 0.00 0.00 0.00 55 1001.8
20260504180314 73 240 7.0 14.0 0.00 0.00 0.00 56 1001.8
20260504180222 73 232 5.0 14.0 0.00 0.00 0.00 55 1001.8
20260504180112 73 243 5.0 14.0 0.00 0.00 0.00 55 1001.8
20260504180035 73 238 6.0 14.0 0.00 0.00 0.00 55 1001.8
20260504175909 73 235 6.0 14.0 0.00 0.00 0.00 54 1001.8
20260504175800 73 246 6.0 14.0 0.00 0.00 0.00 53 1001.8
20260504175712 73 244 7.0 14.0 0.00 0.00 0.00 53 1001.9
20260504175604 73 247 8.0 14.0 0.00 0.00 0.00 54 1001.9
20260504175516 73 229 9.0 14.0 0.00 0.00 0.00 54 1001.9
20260504175406 73 240 9.0 14.0 0.00 0.00 0.00 53 1001.9
20260504175317 73 244 9.0 13.0 0.00 0.00 0.00 54 1001.9
20260504175206 73 246 8.0 13.0 0.00 0.00 0.00 54 1001.8
20260504175101 73 152 7.0 13.0 0.00 0.00 0.00 53 1001.9
20260504175011 73 263 8.0 15.0 0.00 0.00 0.00 52 1002.0
20260504174903 73 211 8.0 16.0 0.00 0.00 0.00 54 1002.0
20260504174813 73 252 7.0 16.0 0.00 0.00 0.00 54 1001.9
20260504174705 73 225 7.0 16.0 0.00 0.00 0.00 54 1001.9
20260504174615 73 239 7.0 16.0 0.00 0.00 0.00 52 1002.0
20260504174536 73 215 7.0 16.0 0.00 0.00 0.00 52 1001.9
20260504174407 73 255 7.0 16.0 0.00 0.00 0.00 54 1002.0
20260504174318 73 248 7.0 16.0 0.00 0.00 0.00 53 1001.9
20260504174212 73 259 8.0 16.0 0.00 0.00 0.00 53 1002.0
20260504174123 73 240 8.0 15.0 0.00 0.00 0.00 52 1002.0
20260504174013 73 227 7.0 15.0 0.00 0.00 0.00 51 1002.0
20260504173906 73 229 9.0 15.0 0.00 0.00 0.00 52 1002.1
20260504173816 73 239 9.0 15.0 0.00 0.00 0.00 52 1002.1
20260504173706 73 243 9.0 15.0 0.00 0.00 0.00 51 1002.0
20260504173617 73 240 9.0 14.0 0.00 0.00 0.00 52 1002.0
20260504173528 73 252 9.0 13.0 0.00 0.00 0.00 52 1002.0
20260504173439 73 237 9.0 13.0 0.00 0.00 0.00 53 1002.0
20260504173310 73 255 7.0 13.0 0.00 0.00 0.00 52 1002.0
20260504173223 73 222 7.0 13.0 0.00 0.00 0.00 52 1002.1
20260504173135 73 204 8.0 13.0 0.00 0.00 0.00 50 1002.1
20260504173058 73 236 8.0 13.0 0.00 0.00 0.00 52 1002.0
20260504172906 73 253 8.0 15.0 0.00 0.00 0.00 51 1002.1
20260504172815 73 242 8.0 15.0 0.00 0.00 0.00 52 1002.1
20260504172707 73 245 7.0 15.0 0.00 0.00 0.00 52 1002.2
20260504172617 73 221 7.0 15.0 0.00 0.00 0.00 50 1002.1
20260504172507 73 256 8.0 15.0 0.00 0.00 0.00 48 1002.1
20260504172418 73 205 8.0 15.0 0.00 0.00 0.00 49 1002.2
20260504172312 73 207 8.0 15.0 0.00 0.00 0.00 51 1002.2
20260504172201 73 249 9.0 15.0 0.00 0.00 0.00 50 1002.1
20260504172113 73 232 9.0 15.0 0.00 0.00 0.00 50 1002.2
20260504172004 73 258 7.0 14.0 0.00 0.00 0.00 49 1002.2
20260504171915 73 238 6.0 14.0 0.00 0.00 0.00 48 1002.1
20260504171826 73 92 7.0 14.0 0.00 0.00 0.00 50 1002.2
20260504171716 73 287 7.0 14.0 0.00 0.00 0.00 48 1002.3
20260504171626 73 217 7.0 14.0 0.00 0.00 0.00 50 1002.3
20260504171549 73 240 6.0 14.0 0.00 0.00 0.00 50 1002.3
20260504171419 73 233 6.0 14.0 0.00 0.00 0.00 51 1002.3
20260504171315 73 238 6.0 14.0 0.00 0.00 0.00 49 1002.4
20260504171206 73 233 7.0 14.0 0.00 0.00 0.00 49 1002.4
20260504171117 73 234 6.0 14.0 0.00 0.00 0.00 50 1002.3
20260504171007 73 283 4.0 14.0 0.00 0.00 0.00 48 1002.3
20260504170918 73 221 4.0 14.0 0.00 0.00 0.00 48 1002.5
20260504170828 73 254 6.0 14.0 0.00 0.00 0.00 49 1002.4
20260504170739 73 236 7.0 14.0 0.00 0.00 0.00 49 1002.4
20260504170608 73 258 4.0 15.0 0.00 0.00 0.00 48 1002.4
20260504170517 73 246 4.0 15.0 0.00 0.00 0.00 49 1002.4
20260504170412 73 123 5.0 15.0 0.00 0.00 0.00 47 1002.4
20260504170303 73 207 7.0 15.0 0.00 0.00 0.00 48 1002.5
20260504170213 73 282 7.0 15.0 0.00 0.00 0.00 47 1002.6
20260504160400 70 251 4.0 10.0 0.00 0.00 0.00 53 1003.3
20260504160313 70 159 4.0 10.0 0.00 0.00 0.00 51 1003.3
20260504160202 70 222 5.0 10.0 0.00 0.00 0.00 53 1003.3
20260504160114 70 230 5.0 10.0 0.00 0.00 0.00 51 1003.4
20260504151100 67 232 2.0 8.0 0.00 0.00 0.00 60 1003.9
20260504151015 67 65 2.0 8.0 0.00 0.00 0.00 60 1003.9
20260504150926 67 111 3.0 8.0 0.00 0.00 0.00 60 1004.0
20260504150816 67 111 3.0 8.0 0.00 0.00 0.00 60 1004.0
20260504150728 67 242 4.0 8.0 0.00 0.00 0.00 59 1004.0
20260504150640 67 243 3.0 8.0 0.00 0.00 0.00 59 1004.0
20260504150550 67 227 2.0 8.0 0.00 0.00 0.00 61 1004.0
20260504150500 67 170 3.0 8.0 0.00 0.00 0.00 60 1003.9
20260504150352 67 140 5.0 8.0 0.00 0.00 0.00 59 1004.0
20260504150239 67 158 4.0 8.0 0.00 0.00 0.00 59 1004.0
20260504150119 66 139 3.0 8.0 0.00 0.00 0.00 59 1004.0
20260504141318 64 161 2.0 8.0 0.00 0.00 0.00 65 1004.4
20260504141230 64 119 1.0 7.0 0.00 0.00 0.00 65 1004.5
20260504141101 64 159 2.0 7.0 0.00 0.00 0.00 64 1004.4
20260504141011 64 237 3.0 7.0 0.00 0.00 0.00 63 1004.4
20260504140901 64 301 3.0 7.0 0.00 0.00 0.00 63 1004.4
20260504140815 64 239 3.0 7.0 0.00 0.00 0.00 64 1004.4
20260504140705 64 82 2.0 5.0 0.00 0.00 0.00 65 1004.5
20260504140616 64 163 2.0 4.0 0.00 0.00 0.00 65 1004.5
20260504140508 64 263 3.0 4.0 0.00 0.00 0.00 64 1004.5
20260504140419 63 251 2.0 4.0 0.00 0.00 0.00 65 1004.5
20260504140311 64 236 2.0 5.0 0.00 0.00 0.00 65 1004.4
20260504140220 63 247 2.0 5.0 0.00 0.00 0.00 67 1004.5
20260504140130 63 327 2.0 5.0 0.00 0.00 0.00 67 1004.5
20260504130802 59 232 2.0 7.0 0.00 0.00 0.00 71 1004.7
20260504130712 59 254 2.0 7.0 0.00 0.00 0.00 71 1004.6
20260504130606 59 250 2.0 7.0 0.00 0.00 0.00 72 1004.7
20260504130517 59 244 2.0 7.0 0.00 0.00 0.00 73 1004.7
20260504130408 59 246 1.0 5.0 0.00 0.00 0.00 73 1004.7
20260504130321 59 259 0.0 5.0 0.00 0.00 0.00 73 1004.7
20260504130229 59 171 1.0 5.0 0.00 0.00 0.00 73 1004.7
20260504130120 59 223 2.0 5.0 0.00 0.00 0.00 73 1004.7
20260504120309 54 243 1.0 4.0 0.00 0.00 0.00 80 1005.0
20260504120218 54 131 1.0 5.0 0.00 0.00 0.00 80 1005.0
20260504120120 54 164 1.0 5.0 0.00 0.00 0.00 80 1005.0
20260504110702 50 284 1.0 5.0 0.00 0.00 0.00 84 1004.8
20260504110613 50 135 1.0 5.0 0.00 0.00 0.00 84 1004.9
20260504110504 50 138 2.0 5.0 0.00 0.00 0.00 84 1004.9
20260504110415 50 223 2.0 5.0 0.00 0.00 0.00 84 1004.9
20260504110312 50 247 1.0 4.0 0.00 0.00 0.00 84 1004.9
20260504110201 50 238 1.0 4.0 0.00 0.00 0.00 84 1005.0
20260504110112 50 236 1.0 4.0 0.00 0.00 0.00 84 1004.9
20260504100543 50 150 2.0 4.0 0.00 0.00 0.00 83 1004.7
20260504100432 51 132 1.0 3.0 0.00 0.00 0.00 83 1004.7
20260504100304 51 229 0.0 4.0 0.00 0.00 0.00 83 1004.6
20260504100214 51 229 1.0 4.0 0.00 0.00 0.00 83 1004.7
20260504100129 51 229 0.0 4.0 0.00 0.00 0.00 83 1004.7
20260504090128 51 178 1.0 4.0 0.00 0.00 0.00 82 1004.9
20260504081902 52 167 0.0 3.0 0.00 0.00 0.00 79 1005.0
20260504081813 52 167 1.0 3.0 0.00 0.00 0.00 79 1005.0
20260504081703 52 167 1.0 3.0 0.00 0.00 0.00 79 1005.0
20260504081614 52 232 1.0 3.0 0.00 0.00 0.00 79 1005.0
20260504081537 52 236 1.0 3.0 0.00 0.00 0.00 79 1005.0
20260504081406 52 236 2.0 3.0 0.00 0.00 0.00 79 1005.1
20260504081301 52 236 2.0 4.0 0.00 0.00 0.00 79 1005.0
20260504081212 52 247 1.0 5.0 0.00 0.00 0.00 78 1005.2
20260504081101 52 227 1.0 5.0 0.00 0.00 0.00 78 1005.2
20260504081013 52 228 1.0 5.0 0.00 0.00 0.00 78 1005.0
20260504080903 53 163 1.0 5.0 0.00 0.00 0.00 78 1005.0
20260504080813 53 190 1.0 5.0 0.00 0.00 0.00 78 1005.1
20260504080704 53 192 1.0 5.0 0.00 0.00 0.00 78 1005.1
20260504080616 53 180 1.0 5.0 0.00 0.00 0.00 78 1005.1
20260504080526 53 161 2.0 5.0 0.00 0.00 0.00 78 1005.1
20260504080415 53 232 2.0 5.0 0.00 0.00 0.00 78 1005.2
20260504080331 53 227 1.0 5.0 0.00 0.00 0.00 78 1005.1
20260504080218 53 193 0.0 4.0 0.00 0.00 0.00 78 1005.2
20260504080110 53 152 0.0 8.0 0.00 0.00 0.00 78 1005.1
20260504070309 54 255 5.0 10.0 0.00 0.00 0.00 76 1005.8
20260504070220 54 253 4.0 10.0 0.00 0.00 0.00 76 1005.8
20260504070132 54 248 3.0 8.0 0.00 0.00 0.00 76 1005.8
20260504060203 54 196 2.0 7.0 0.00 0.00 0.00 76 1006.5
20260504060114 54 254 2.0 7.0 0.00 0.00 0.00 76 1006.6
20260504050719 54 245 2.0 5.0 0.00 0.00 0.00 75 1007.2
20260504050609 54 141 1.0 5.0 0.00 0.00 0.00 75 1007.2
20260504050520 54 203 1.0 9.0 0.00 0.00 0.00 75 1007.3
20260504050431 54 232 2.0 9.0 0.00 0.00 0.00 75 1007.3
20260504050304 54 291 2.0 9.0 0.00 0.00 0.00 75 1007.3
20260504050213 54 240 2.0 9.0 0.00 0.00 0.00 75 1007.2
20260504050108 54 251 2.0 9.0 0.00 0.00 0.00 75 1007.2
20260504045900 54 32 2.0 9.0 0.00 0.00 0.00 75 1007.2
20260504045811 54 122 2.0 9.0 0.00 0.00 0.00 75 1007.2
20260504045701 54 257 1.0 7.0 0.00 0.00 0.00 75 1007.3
20260504045612 54 259 1.0 7.0 0.00 0.00 0.00 76 1007.2
20260504045502 54 284 2.0 7.0 0.00 0.00 0.00 76 1007.3
20260504045413 54 219 2.0 7.0 0.00 0.00 0.00 76 1007.3
20260504045307 54 278 1.0 7.0 0.00 0.00 0.00 76 1007.3
20260504045218 54 150 2.0 7.0 0.00 0.00 0.00 76 1007.2
20260504045130 54 236 2.0 7.0 0.00 0.00 0.00 76 1007.1
20260504045020 54 296 2.0 7.0 0.00 0.00 0.00 76 1007.2
20260504044930 54 175 3.0 8.0 0.00 0.00 0.00 76 1007.2
20260504044820 54 236 2.0 7.0 0.00 0.00 0.00 76 1007.3
20260504044730 54 84 3.0 7.0 0.00 0.00 0.00 76 1007.2
20260504044601 54 248 3.0 7.0 0.00 0.00 0.00 76 1007.2
20260504044523 54 212 3.0 7.0 0.00 0.00 0.00 76 1007.2
20260504044416 53 172 1.0 5.0 0.00 0.00 0.00 76 1007.2
20260504044305 53 261 1.0 5.0 0.00 0.00 0.00 76 1007.3
20260504044200 53 223 2.0 5.0 0.00 0.00 0.00 76 1007.3
20260504044112 53 229 2.0 5.0 0.00 0.00 0.00 76 1007.3
20260504044002 53 213 3.0 5.0 0.00 0.00 0.00 76 1007.3
20260504043913 53 240 2.0 5.0 0.00 0.00 0.00 76 1007.3
20260504043803 53 263 1.0 5.0 0.00 0.00 0.00 76 1007.3
20260504043714 53 74 2.0 5.0 0.00 0.00 0.00 76 1007.3
20260504043606 53 108 2.0 5.0 0.00 0.00 0.00 76 1007.3
20260504043517 53 132 3.0 5.0 0.00 0.00 0.00 76 1007.3
20260504043412 53 243 3.0 7.0 0.00 0.00 0.00 76 1007.2
20260504043306 53 222 2.0 7.0 0.00 0.00 0.00 76 1007.3
20260504043215 53 169 2.0 7.0 0.00 0.00 0.00 76 1007.3
20260504043105 53 242 2.0 7.0 0.00 0.00 0.00 76 1007.3
20260504043027 53 215 2.0 7.0 0.00 0.00 0.00 76 1007.4
20260504042916 53 192 2.0 8.0 0.00 0.00 0.00 76 1007.3
20260504042805 53 201 2.0 8.0 0.00 0.00 0.00 76 1007.4
20260504042716 53 249 2.0 8.0 0.00 0.00 0.00 76 1007.3
20260504042606 53 251 2.0 8.0 0.00 0.00 0.00 76 1007.3
20260504042520 53 281 1.0 8.0 0.00 0.00 0.00 76 1007.3
20260504042410 53 269 1.0 8.0 0.00 0.00 0.00 76 1007.3
20260504042301 53 281 2.0 8.0 0.00 0.00 0.00 77 1007.3
20260504042211 53 250 3.0 8.0 0.00 0.00 0.00 77 1007.3
20260504042102 53 219 3.0 7.0 0.00 0.00 0.00 77 1007.4
20260504042012 53 136 2.0 5.0 0.00 0.00 0.00 77 1007.3
20260504041904 53 221 2.0 5.0 0.00 0.00 0.00 77 1007.3
20260504041814 53 238 2.0 5.0 0.00 0.00 0.00 77 1007.3
20260504041705 53 252 2.0 7.0 0.00 0.00 0.00 77 1007.3
20260504041620 53 126 2.0 7.0 0.00 0.00 0.00 77 1007.4
20260504041542 53 190 2.0 7.0 0.00 0.00 0.00 77 1007.4
20260504041433 53 223 1.0 7.0 0.00 0.00 0.00 77 1007.4
20260504041321 53 117 1.0 7.0 0.00 0.00 0.00 77 1007.4
20260504041232 53 269 1.0 7.0 0.00 0.00 0.00 77 1007.4
20260504041101 53 263 1.0 7.0 0.00 0.00 0.00 78 1007.4
20260504041012 53 219 2.0 7.0 0.00 0.00 0.00 78 1007.4
20260504040902 52 146 3.0 7.0 0.00 0.00 0.00 78 1007.4
20260504040814 52 257 2.0 7.0 0.00 0.00 0.00 78 1007.4
20260504040706 52 229 3.0 7.0 0.00 0.00 0.00 78 1007.4
20260504040600 52 252 2.0 7.0 0.00 0.00 0.00 78 1007.4
20260504040510 52 284 2.0 7.0 0.00 0.00 0.00 79 1007.4
20260504040401 52 166 2.0 7.0 0.00 0.00 0.00 79 1007.4
20260504040313 52 331 2.0 7.0 0.00 0.00 0.00 79 1007.5
20260504040202 52 132 2.0 7.0 0.00 0.00 0.00 79 1007.5
20260504040114 52 159 2.0 7.0 0.00 0.00 0.00 79 1007.4
20260504040035 52 265 1.0 4.0 0.00 0.00 0.00 79 1007.5
20260504035926 52 277 1.0 4.0 0.00 0.00 0.00 79 1007.5
20260504035807 52 202 1.0 4.0 0.00 0.00 0.00 79 1007.4
20260504035703 52 219 1.0 4.0 0.00 0.00 0.00 79 1007.5
20260504035614 51 271 1.0 4.0 0.00 0.00 0.00 79 1007.5
20260504035506 51 284 1.0 4.0 0.00 0.00 0.00 80 1007.5
20260504035418 51 277 1.0 4.0 0.00 0.00 0.00 80 1007.6
20260504035309 51 195 1.0 3.0 0.00 0.00 0.00 80 1007.5
20260504035200 51 217 1.0 3.0 0.00 0.00 0.00 80 1007.5
20260504035110 51 217 1.0 4.0 0.00 0.00 0.00 80 1007.5
20260504035023 51 150 1.0 4.0 0.00 0.00 0.00 80 1007.5
20260504034935 51 248 1.0 4.0 0.00 0.00 0.00 80 1007.5
20260504034824 51 140 1.0 4.0 0.00 0.00 0.00 80 1007.5
20260504034739 51 111 1.0 4.0 0.00 0.00 0.00 80 1007.6
20260504034608 51 153 1.0 4.0 0.00 0.00 0.00 80 1007.5
20260504034531 51 269 1.0 4.0 0.00 0.00 0.00 80 1007.5
20260504034401 51 153 1.0 4.0 0.00 0.00 0.00 80 1007.6
20260504034310 51 167 1.0 4.0 0.00 0.00 0.00 80 1007.6
20260504034202 51 109 1.0 3.0 0.00 0.00 0.00 80 1007.6
20260504034115 51 337 1.0 3.0 0.00 0.00 0.00 80 1007.6
20260504034006 51 169 1.0 3.0 0.00 0.00 0.00 80 1007.7
20260504033900 51 101 1.0 3.0 0.00 0.00 0.00 80 1007.7
20260504033811 51 270 1.0 3.0 0.00 0.00 0.00 80 1007.7
20260504033700 51 142 0.0 3.0 0.00 0.00 0.00 80 1007.7
20260504033612 51 255 0.0 3.0 0.00 0.00 0.00 80 1007.6
20260504033504 51 255 1.0 3.0 0.00 0.00 0.00 80 1007.8
20260504033414 51 255 1.0 3.0 0.00 0.00 0.00 80 1007.7
20260504033306 51 192 1.0 3.0 0.00 0.00 0.00 80 1007.8
20260504033217 51 192 1.0 3.0 0.00 0.00 0.00 80 1007.8
20260504033119 51 192 1.0 3.0 0.00 0.00 0.00 80 1007.8
20260504033034 51 225 1.0 3.0 0.00 0.00 0.00 80 1007.8
20260504032903 51 224 0.0 2.0 0.00 0.00 0.00 80 1007.9
20260504032813 51 224 0.0 2.0 0.00 0.00 0.00 80 1007.8
20260504032704 51 224 0.0 2.0 0.00 0.00 0.00 80 1007.8
20260504032615 51 224 0.0 3.0 0.00 0.00 0.00 80 1007.9
20260504032506 51 224 0.0 3.0 0.00 0.00 0.00 80 1007.8
20260504032417 51 224 0.0 3.0 0.00 0.00 0.00 80 1007.8
20260504032328 51 186 0.0 3.0 0.00 0.00 0.00 80 1007.9
20260504032239 51 215 0.0 3.0 0.00 0.00 0.00 80 1007.9
20260504032112 51 215 0.0 3.0 0.00 0.00 0.00 81 1007.8
20260504032023 51 215 0.0 3.0 0.00 0.00 0.00 80 1008.0
20260504031933 51 215 1.0 3.0 0.00 0.00 0.00 81 1007.9
20260504031802 51 149 1.0 3.0 0.00 0.00 0.00 81 1007.8
20260504031714 51 202 0.0 3.0 0.00 0.00 0.00 81 1007.9
20260504031605 51 202 0.0 3.0 0.00 0.00 0.00 81 1007.8
20260504031529 51 202 1.0 3.0 0.00 0.00 0.00 81 1007.9
20260504031418 51 181 1.0 3.0 0.00 0.00 0.00 81 1007.8
20260504031310 51 190 1.0 3.0 0.00 0.00 0.00 81 1007.8
20260504031205 51 237 1.0 3.0 0.00 0.00 0.00 81 1007.8
20260504031116 51 161 1.0 3.0 0.00 0.00 0.00 80 1007.8
20260504031006 51 234 0.0 3.0 0.00 0.00 0.00 80 1007.8
20260504030917 51 173 0.0 4.0 0.00 0.00 0.00 80 1007.8
20260504030808 51 188 0.0 4.0 0.00 0.00 0.00 80 1007.8
20260504030719 52 188 0.0 4.0 0.00 0.00 0.00 80 1007.8
20260504030609 52 136 1.0 4.0 0.00 0.00 0.00 80 1007.8
20260504030500 52 226 1.0 4.0 0.00 0.00 0.00 80 1007.7
20260504030411 52 138 1.0 4.0 0.00 0.00 0.00 80 1007.7
20260504030308 52 190 1.0 4.0 0.00 0.00 0.00 80 1007.8
20260504030218 52 132 1.0 4.0 0.00 0.00 0.00 80 1007.9
20260504030109 52 147 1.0 5.0 0.00 0.00 0.00 80 1007.9
20260504030029 52 152 1.0 5.0 0.00 0.00 0.00 80 1007.8
20260504025900 52 153 1.0 5.0 0.00 0.00 0.00 80 1007.8
20260504025811 52 207 1.0 5.0 0.00 0.00 0.00 80 1007.8
20260504025722 52 163 2.0 5.0 0.00 0.00 0.00 80 1007.8
20260504025612 52 177 2.0 5.0 0.00 0.00 0.00 80 1007.8
20260504025523 52 157 1.0 5.0 0.00 0.00 0.00 80 1007.8
20260504025412 52 137 1.0 5.0 0.00 0.00 0.00 80 1007.9
20260504025308 52 172 1.0 5.0 0.00 0.00 0.00 80 1007.8
20260504025218 52 159 1.0 4.0 0.00 0.00 0.00 80 1007.8
20260504025108 52 143 1.0 4.0 0.00 0.00 0.00 80 1007.9
20260504025018 52 152 1.0 5.0 0.00 0.00 0.00 80 1007.8
20260504024909 52 201 1.0 5.0 0.00 0.00 0.00 80 1007.8
20260504024801 52 140 2.0 5.0 0.00 0.00 0.00 80 1007.8
20260504024712 52 159 2.0 5.0 0.00 0.00 0.00 80 1007.8
20260504024602 52 162 2.0 7.0 0.00 0.00 0.00 80 1007.8
20260504024528 52 175 2.0 7.0 0.00 0.00 0.00 80 1007.8
20260504024416 52 165 2.0 8.0 0.00 0.00 0.00 80 1007.8
20260504024306 52 186 3.0 8.0 0.00 0.00 0.00 80 1007.8
20260504024218 52 144 3.0 8.0 0.00 0.00 0.00 80 1007.9
20260504024108 52 138 2.0 8.0 0.00 0.00 0.00 80 1007.9
20260504024018 52 165 2.0 8.0 0.00 0.00 0.00 80 1007.9
20260504023930 52 157 2.0 8.0 0.00 0.00 0.00 80 1007.9
20260504023840 52 168 2.0 8.0 0.00 0.00 0.00 81 1007.8
20260504023729 52 199 3.0 8.0 0.00 0.00 0.00 81 1007.8
20260504023618 52 205 3.0 8.0 0.00 0.00 0.00 81 1007.8
20260504023513 52 190 1.0 5.0 0.00 0.00 0.00 81 1007.8
20260504023404 52 167 1.0 5.0 0.00 0.00 0.00 81 1007.8
20260504023317 52 202 2.0 5.0 0.00 0.00 0.00 81 1007.8
20260504023206 52 199 2.0 5.0 0.00 0.00 0.00 81 1007.8
20260504023117 52 240 2.0 5.0 0.00 0.00 0.00 81 1007.8
20260504023039 52 163 2.0 5.0 0.00 0.00 0.00 81 1007.8
20260504022929 52 199 2.0 5.0 0.00 0.00 0.00 81 1007.8
20260504022818 52 200 2.0 5.0 0.00 0.00 0.00 81 1007.9
20260504022708 52 160 2.0 5.0 0.00 0.00 0.00 81 1007.8
20260504022605 52 153 2.0 5.0 0.00 0.00 0.00 81 1007.8
20260504022516 52 155 1.0 5.0 0.00 0.00 0.00 81 1007.8
20260504022428 52 171 1.0 5.0 0.00 0.00 0.00 80 1008.0
20260504022338 52 161 1.0 5.0 0.00 0.00 0.00 80 1007.9
20260504022227 52 309 1.0 8.0 0.00 0.00 0.00 80 1007.8
20260504022116 52 207 2.0 8.0 0.00 0.00 0.00 80 1007.8
20260504022028 52 146 2.0 8.0 0.00 0.00 0.00 80 1007.8
20260504021917 52 154 2.0 8.0 0.00 0.00 0.00 80 1007.8
20260504021809 52 207 3.0 8.0 0.00 0.00 0.00 80 1007.7
20260504021701 52 167 2.0 8.0 0.00 0.00 0.00 80 1007.8
20260504021612 52 157 1.0 8.0 0.00 0.00 0.00 80 1007.8
20260504021537 52 111 1.0 8.0 0.00 0.00 0.00 80 1007.8
20260504021408 52 173 3.0 8.0 0.00 0.00 0.00 80 1007.7
20260504021318 52 150 3.0 6.0 0.00 0.00 0.00 80 1007.7
20260504021209 53 155 3.0 7.0 0.00 0.00 0.00 80 1007.7
20260504021119 53 153 2.0 7.0 0.00 0.00 0.00 80 1007.7
20260504021010 52 174 2.0 7.0 0.00 0.00 0.00 80 1007.7
20260504020901 53 132 2.0 7.0 0.00 0.00 0.00 80 1007.7
20260504020813 53 150 2.0 7.0 0.00 0.00 0.00 80 1007.7
20260504020723 52 169 2.0 7.0 0.00 0.00 0.00 80 1007.6
20260504020637 52 166 2.0 7.0 0.00 0.00 0.00 81 1007.6
20260504020548 52 190 2.0 6.0 0.00 0.00 0.00 81 1007.6
20260504020437 52 180 3.0 6.0 0.00 0.00 0.00 81 1007.5
20260504020308 52 150 3.0 7.0 0.00 0.00 0.00 81 1007.5
20260504020217 52 149 3.0 6.0 0.00 0.00 0.00 81 1007.5
20260504020108 52 157 3.0 8.0 0.00 0.00 0.00 81 1007.5
20260504020030 52 153 2.0 8.0 0.00 0.00 0.00 80 1007.4
20260504015919 52 175 2.0 8.0 0.00 0.00 0.00 80 1007.5
20260504015810 52 141 2.0 8.0 0.00 0.00 0.00 80 1007.5
20260504015704 53 144 1.0 8.0 0.00 0.00 0.00 80 1007.5
20260504015616 53 45 1.0 8.0 0.00 0.00 0.00 80 1007.4
20260504015507 53 180 2.0 8.0 0.00 0.00 0.00 80 1007.4
20260504015416 53 128 2.0 8.0 0.00 0.00 0.00 80 1007.4
20260504015307 52 126 3.0 8.0 0.00 0.00 0.00 80 1007.3
20260504015220 52 179 3.0 8.0 0.00 0.00 0.00 80 1007.3
20260504015131 52 165 4.0 8.0 0.00 0.00 0.00 80 1007.3
20260504015022 52 154 4.0 8.0 0.00 0.00 0.00 80 1007.3
20260504014932 52 158 3.0 8.0 0.00 0.00 0.00 80 1007.3
20260504014803 53 174 3.0 6.0 0.00 0.00 0.00 80 1007.3
20260504014718 52 167 4.0 6.0 0.00 0.00 0.00 80 1007.4
20260504014609 53 171 3.0 7.0 0.00 0.00 0.00 80 1007.4
20260504014532 53 157 2.0 7.0 0.00 0.00 0.00 80 1007.3
20260504014401 53 173 3.0 7.0 0.00 0.00 0.00 80 1007.4
20260504014312 53 165 3.0 7.0 0.00 0.00 0.00 80 1007.3
20260504014202 53 146 3.0 7.0 0.00 0.00 0.00 80 1007.3
20260504014113 53 158 3.0 7.0 0.00 0.00 0.00 80 1007.3
20260504014005 53 189 3.0 7.0 0.00 0.00 0.00 80 1007.3
20260504013900 53 159 3.0 6.0 0.00 0.00 0.00 80 1007.3
20260504013811 53 198 3.0 6.0 0.00 0.00 0.00 80 1007.4
20260504013702 53 169 3.0 6.0 0.00 0.00 0.00 80 1007.4
20260504013613 53 182 3.0 6.0 0.00 0.00 0.00 80 1007.3
20260504013504 53 199 3.0 6.0 0.00 0.00 0.00 79 1007.3
20260504013414 53 180 3.0 7.0 0.00 0.00 0.00 79 1007.4
20260504013307 53 143 4.0 7.0 0.00 0.00 0.00 79 1007.4
20260504013216 53 158 4.0 7.0 0.00 0.00 0.00 79 1007.4
20260504013107 53 159 3.0 7.0 0.00 0.00 0.00 79 1007.4
20260504013033 53 169 2.0 7.0 0.00 0.00 0.00 79 1007.5
20260504012903 53 155 2.0 6.0 0.00 0.00 0.00 79 1007.5
20260504012813 53 159 2.0 6.0 0.00 0.00 0.00 79 1007.5
20260504012704 53 163 2.0 6.0 0.00 0.00 0.00 79 1007.5
20260504012615 53 168 2.0 8.0 0.00 0.00 0.00 79 1007.6
20260504012505 53 171 2.0 8.0 0.00 0.00 0.00 78 1007.6
20260504012415 53 171 2.0 10.0 0.00 0.00 0.00 78 1007.5
20260504012306 53 181 2.0 10.0 0.00 0.00 0.00 78 1007.6
20260504012201 53 156 2.0 10.0 0.00 0.00 0.00 78 1007.6
20260504012111 53 158 3.0 10.0 0.00 0.00 0.00 78 1007.5
20260504012002 53 167 3.0 10.0 0.00 0.00 0.00 78 1007.5
20260504011914 53 184 4.0 10.0 0.00 0.00 0.00 78 1007.5
20260504011807 53 161 4.0 10.0 0.00 0.00 0.00 78 1007.3
20260504011718 53 157 4.0 10.0 0.00 0.00 0.00 78 1007.3
20260504011629 53 155 4.0 10.0 0.00 0.00 0.00 78 1007.4
20260504011530 53 178 4.0 10.0 0.00 0.00 0.00 78 1007.4
20260504011420 53 157 4.0 10.0 0.00 0.00 0.00 78 1007.4
20260504011332 53 156 4.0 10.0 0.00 0.00 0.00 77 1007.4
20260504011205 54 157 5.0 10.0 0.00 0.00 0.00 77 1007.5
20260504011117 54 157 4.0 10.0 0.00 0.00 0.00 77 1007.4
20260504011007 54 152 3.0 9.0 0.00 0.00 0.00 77 1007.4
20260504010918 54 150 3.0 9.0 0.00 0.00 0.00 77 1007.5
20260504010808 54 163 3.0 9.0 0.00 0.00 0.00 77 1007.4
20260504010700 54 164 3.0 9.0 0.00 0.00 0.00 77 1007.4
20260504010611 54 153 3.0 9.0 0.00 0.00 0.00 77 1007.4
20260504010502 54 163 3.0 9.0 0.00 0.00 0.00 77 1007.4
20260504010412 54 153 3.0 9.0 0.00 0.00 0.00 77 1007.5
20260504010309 54 161 3.0 9.0 0.00 0.00 0.00 77 1007.4
20260504010218 54 141 3.0 9.0 0.00 0.00 0.00 76 1007.5
20260504010129 54 163 4.0 9.0 0.00 0.00 0.00 77 1007.5
20260504010051 54 151 4.0 9.0 0.00 0.00 0.00 76 1007.5
20260504005902 54 154 3.0 8.0 0.00 0.00 0.00 76 1007.5
20260504005813 54 157 2.0 8.0 0.00 0.00 0.00 76 1007.5
20260504005723 54 165 3.0 9.0 0.00 0.00 0.00 76 1007.6
20260504005633 54 151 3.0 9.0 0.00 0.00 0.00 76 1007.5
20260504005544 54 168 3.0 9.0 0.00 0.00 0.00 76 1007.5
20260504005454 54 177 2.0 9.0 0.00 0.00 0.00 76 1007.6
20260504005404 54 153 2.0 9.0 0.00 0.00 0.00 75 1007.5
20260504005237 54 211 1.0 9.0 0.00 0.00 0.00 75 1007.6
20260504005148 54 159 2.0 10.0 0.00 0.00 0.00 75 1007.6
20260504005037 54 148 4.0 10.0 0.00 0.00 0.00 75 1007.7
20260504004907 54 173 4.0 10.0 0.00 0.00 0.00 75 1007.7
20260504004817 54 173 2.0 10.0 0.00 0.00 0.00 75 1007.7
20260504004728 54 158 2.0 10.0 0.00 0.00 0.00 75 1007.8
20260504004640 54 180 3.0 10.0 0.00 0.00 0.00 75 1007.7
20260504004541 54 209 2.0 10.0 0.00 0.00 0.00 75 1007.7
20260504004430 54 164 4.0 10.0 0.00 0.00 0.00 74 1007.7
20260504004340 55 160 4.0 10.0 0.00 0.00 0.00 74 1007.7
20260504004209 55 167 3.0 9.0 0.00 0.00 0.00 74 1007.7
20260504004100 55 173 3.0 9.0 0.00 0.00 0.00 74 1007.7
20260504004010 55 157 4.0 9.0 0.00 0.00 0.00 74 1007.7
20260504003901 55 140 5.0 9.0 0.00 0.00 0.00 74 1007.6
20260504003811 55 172 4.0 9.0 0.00 0.00 0.00 74 1007.7
20260504003701 55 157 5.0 9.0 0.00 0.00 0.00 73 1007.7
20260504003613 55 154 4.0 9.0 0.00 0.00 0.00 73 1007.8
20260504003524 55 172 3.0 7.0 0.00 0.00 0.00 73 1007.7
20260504003434 55 207 3.0 7.0 0.00 0.00 0.00 73 1007.7
20260504003306 55 165 4.0 7.0 0.00 0.00 0.00 73 1007.8
20260504003201 55 175 3.0 8.0 0.00 0.00 0.00 73 1007.7
20260504003111 55 190 3.0 12.0 0.00 0.00 0.00 72 1007.7
20260504003033 55 157 4.0 12.0 0.00 0.00 0.00 72 1007.7
20260504002904 55 171 3.0 12.0 0.00 0.00 0.00 72 1007.7
20260504002816 55 206 3.0 12.0 0.00 0.00 0.00 72 1007.7
20260504002726 56 161 4.0 12.0 0.00 0.00 0.00 72 1007.8
20260504002616 56 206 4.0 12.0 0.00 0.00 0.00 72 1007.8
20260504002507 56 157 5.0 12.0 0.00 0.00 0.00 72 1007.7
20260504002419 56 159 5.0 12.0 0.00 0.00 0.00 72 1007.7
20260504002309 56 175 5.0 13.0 0.00 0.00 0.00 72 1007.7
20260504002204 56 162 5.0 10.0 0.00 0.00 0.00 72 1007.8
20260504002115 56 157 5.0 10.0 0.00 0.00 0.00 72 1007.8
20260504002007 56 169 5.0 10.0 0.00 0.00 0.00 71 1007.7
20260504001918 56 150 4.0 9.0 0.00 0.00 0.00 71 1007.8
20260504001809 56 166 4.0 9.0 0.00 0.00 0.00 71 1007.8
20260504001721 56 178 4.0 9.0 0.00 0.00 0.00 71 1007.8
20260504001631 56 171 5.0 12.0 0.00 0.00 0.00 71 1007.7
20260504001553 56 155 5.0 12.0 0.00 0.00 0.00 71 1007.8
20260504001402 56 156 4.0 12.0 0.00 0.00 0.00 71 1007.7
20260504001316 56 173 4.0 12.0 0.00 0.00 0.00 71 1007.9
20260504001208 56 157 3.0 12.0 0.00 0.00 0.00 71 1007.8
20260504001118 56 147 3.0 12.0 0.00 0.00 0.00 71 1007.8
20260504001008 56 172 5.0 12.0 0.00 0.00 0.00 71 1007.8
20260504000920 56 146 5.0 12.0 0.00 0.00 0.00 70 1007.8
20260504000809 56 151 5.0 9.0 0.00 0.00 0.00 70 1007.8
20260504000700 56 214 4.0 10.0 0.00 0.00 0.00 70 1007.8
20260504000611 56 188 4.0 10.0 0.00 0.00 0.00 70 1007.8
20260504000522 56 189 5.0 10.0 0.00 0.00 0.00 70 1007.8
20260504000416 56 182 4.0 12.0 0.00 0.00 0.00 70 1007.8
20260504000308 57 175 4.0 12.0 0.00 0.00 0.00 70 1007.8
20260504000219 57 182 4.0 12.0 0.00 0.00 0.00 70 1007.8
20260504000120 57 146 4.0 12.0 0.00 0.00 0.00 70 1007.9
20260504000022 57 169 5.0 12.0 0.00 0.00 0.00 69 1007.9
20260503235912 57 182 4.0 12.0 0.00 0.00 0.00 69 1007.9
20260503235822 57 207 5.0 12.0 0.00 0.00 0.00 69 1007.8
20260503235731 57 164 6.0 12.0 0.00 0.00 0.00 69 1007.8
20260503235602 57 171 5.0 12.0 0.00 0.00 0.00 69 1007.9
20260503235512 57 145 4.0 12.0 0.00 0.00 0.00 69 1007.9
20260503235406 57 160 3.0 12.0 0.00 0.00 0.00 69 1007.9
20260503235319 57 213 4.0 12.0 0.00 0.00 0.00 69 1007.9
20260503235211 57 248 5.0 12.0 0.00 0.00 0.00 68 1007.9
20260503235102 57 159 5.0 12.0 0.00 0.00 0.00 68 1008.0
20260503235012 57 168 5.0 12.0 0.00 0.00 0.00 68 1008.0
20260503234923 57 160 5.0 12.0 0.00 0.00 0.00 68 1007.9
20260503234813 57 173 4.0 10.0 0.00 0.00 0.00 68 1008.0
20260503234702 57 180 4.0 10.0 0.00 0.00 0.00 68 1008.0
20260503234615 57 192 4.0 10.0 0.00 0.00 0.00 68 1007.9
20260503234540 57 162 4.0 10.0 0.00 0.00 0.00 68 1008.1
20260503234429 57 150 4.0 10.0 0.00 0.00 0.00 68 1007.9
20260503234319 57 161 3.0 10.0 0.00 0.00 0.00 68 1008.0
20260503234208 57 155 3.0 11.0 0.00 0.00 0.00 69 1007.9
20260503234100 57 314 4.0 11.0 0.00 0.00 0.00 68 1008.0
20260503234010 57 210 5.0 11.0 0.00 0.00 0.00 68 1008.0
20260503233901 57 80 5.0 14.0 0.00 0.00 0.00 68 1008.0
20260503233812 57 306 4.0 14.0 0.00 0.00 0.00 68 1008.1
20260503233701 57 140 3.0 14.0 0.00 0.00 0.00 68 1008.0
20260503233611 57 269 4.0 14.0 0.00 0.00 0.00 68 1007.9
20260503233505 58 93 4.0 14.0 0.00 0.00 0.00 68 1007.9
20260503233416 57 178 4.0 14.0 0.00 0.00 0.00 68 1008.0
20260503233329 57 313 5.0 14.0 0.00 0.00 0.00 68 1008.0
20260503233217 57 263 6.0 14.0 0.00 0.00 0.00 68 1008.0
20260503233128 57 165 8.0 14.0 0.00 0.00 0.00 68 1008.0
20260503233030 57 149 7.0 11.0 0.00 0.00 0.00 68 1008.0
20260503232919 58 156 6.0 11.0 0.00 0.00 0.00 67 1008.0
20260503232828 57 156 5.0 12.0 0.00 0.00 0.00 67 1008.1
20260503232739 58 159 4.0 12.0 0.00 0.00 0.00 68 1008.1
20260503232629 58 130 5.0 12.0 0.00 0.00 0.00 67 1008.1
20260503232500 58 165 4.0 12.0 0.00 0.00 0.00 68 1008.1
20260503232416 58 223 4.0 12.0 0.00 0.00 0.00 68 1008.1
20260503232326 58 181 5.0 12.0 0.00 0.00 0.00 67 1008.1
20260503232236 58 266 6.0 12.0 0.00 0.00 0.00 68 1008.1
20260503232107 58 193 6.0 12.0 0.00 0.00 0.00 68 1008.2
20260503232017 58 234 5.0 12.0 0.00 0.00 0.00 67 1008.2
20260503231927 58 150 5.0 12.0 0.00 0.00 0.00 67 1008.2
20260503231838 58 112 5.0 12.0 0.00 0.00 0.00 66 1008.3
20260503231708 58 150 6.0 11.0 0.00 0.00 0.00 67 1008.3
20260503231618 58 219 6.0 11.0 0.00 0.00 0.00 66 1008.4
20260503231541 58 133 5.0 11.0 0.00 0.00 0.00 67 1008.4
20260503231415 58 281 4.0 11.0 0.00 0.00 0.00 67 1008.5
20260503231327 58 158 3.0 10.0 0.00 0.00 0.00 68 1008.5
20260503231237 58 35 4.0 11.0 0.00 0.00 0.00 67 1008.5
20260503231106 58 215 4.0 13.0 0.00 0.00 0.00 67 1008.5
20260503231018 58 325 5.0 13.0 0.00 0.00 0.00 67 1008.5
20260503230907 58 154 5.0 13.0 0.00 0.00 0.00 67 1008.5
20260503230818 58 146 5.0 13.0 0.00 0.00 0.00 67 1008.6
20260503230730 58 163 5.0 13.0 0.00 0.00 0.00 67 1008.6
20260503230640 58 308 5.0 13.0 0.00 0.00 0.00 67 1008.7
20260503230510 58 127 5.0 13.0 0.00 0.00 0.00 66 1008.6
20260503230406 58 142 6.0 13.0 0.00 0.00 0.00 66 1008.7
20260503230318 58 51 5.0 13.0 0.00 0.00 0.00 66 1008.7
20260503230228 58 63 4.0 11.0 0.00 0.00 0.00 67 1008.6
20260503230138 58 57 4.0 11.0 0.00 0.00 0.00 67 1008.7
20260503230100 58 175 4.0 11.0 0.00 0.00 0.00 67 1008.8
20260503225907 58 84 3.0 11.0 0.00 0.00 0.00 67 1008.7
20260503225819 57 263 4.0 11.0 0.00 0.00 0.00 67 1008.7
20260503225731 57 154 3.0 11.0 0.00 0.00 0.00 66 1008.7
20260503225620 57 309 4.0 11.0 0.00 0.00 0.00 67 1008.7
20260503225532 58 163 3.0 11.0 0.00 0.00 0.00 66 1008.8
20260503225405 58 292 4.0 11.0 0.00 0.00 0.00 66 1008.7
20260503225317 58 284 4.0 11.0 0.00 0.00 0.00 66 1008.8
20260503225228 58 314 4.0 11.0 0.00 0.00 0.00 67 1008.8
20260503225140 58 226 4.0 11.0 0.00 0.00 0.00 66 1008.8
20260503225008 58 158 5.0 11.0 0.00 0.00 0.00 66 1008.8
20260503224918 58 281 5.0 11.0 0.00 0.00 0.00 66 1008.9
20260503224809 58 180 5.0 11.0 0.00 0.00 0.00 66 1008.8
20260503224719 58 52 4.0 11.0 0.00 0.00 0.00 66 1008.8
20260503224620 58 196 5.0 11.0 0.00 0.00 0.00 66 1008.9
20260503224521 58 192 4.0 14.0 0.00 0.00 0.00 66 1008.8
20260503224414 58 101 4.0 14.0 0.00 0.00 0.00 67 1008.9
20260503224304 58 257 5.0 14.0 0.00 0.00 0.00 66 1008.9
20260503224214 57 46 4.0 14.0 0.00 0.00 0.00 67 1008.9
20260503224125 57 182 4.0 14.0 0.00 0.00 0.00 67 1008.9
20260503224038 57 212 3.0 14.0 0.00 0.00 0.00 67 1009.0
20260503223908 57 236 5.0 14.0 0.00 0.00 0.00 66 1008.9
20260503223818 57 151 7.0 14.0 0.00 0.00 0.00 66 1009.0
20260503223710 57 157 6.0 12.0 0.00 0.00 0.00 66 1008.9
20260503223601 57 138 5.0 12.0 0.00 0.00 0.00 66 1009.0
20260503223516 57 170 6.0 11.0 0.00 0.00 0.00 66 1009.0
20260503223405 57 162 6.0 11.0 0.00 0.00 0.00 66 1009.0
20260503223317 57 200 5.0 11.0 0.00 0.00 0.00 66 1009.0
20260503223208 57 126 4.0 11.0 0.00 0.00 0.00 66 1009.0
20260503223119 57 174 5.0 11.0 0.00 0.00 0.00 66 1009.0
20260503223040 57 294 4.0 11.0 0.00 0.00 0.00 66 1009.1
20260503222910 57 279 4.0 11.0 0.00 0.00 0.00 67 1009.1
20260503222800 57 223 5.0 11.0 0.00 0.00 0.00 68 1009.1
20260503222710 57 235 4.0 10.0 0.00 0.00 0.00 68 1009.0
20260503222604 57 276 4.0 10.0 0.00 0.00 0.00 68 1009.0
20260503222515 57 134 3.0 10.0 0.00 0.00 0.00 68 1009.0
20260503222425 57 268 4.0 10.0 0.00 0.00 0.00 68 1009.1
20260503222335 57 296 5.0 10.0 0.00 0.00 0.00 67 1009.1
20260503222224 57 148 5.0 10.0 0.00 0.00 0.00 68 1009.1
20260503222113 56 291 5.0 10.0 0.00 0.00 0.00 68 1009.1
20260503222026 56 155 5.0 12.0 0.00 0.00 0.00 68 1009.1
20260503221915 56 147 5.0 12.0 0.00 0.00 0.00 68 1009.1
20260503221804 56 238 4.0 12.0 0.00 0.00 0.00 68 1009.1
20260503221717 56 159 4.0 12.0 0.00 0.00 0.00 68 1009.2
20260503221626 56 215 3.0 12.0 0.00 0.00 0.00 69 1009.2
20260503221531 56 159 3.0 12.0 0.00 0.00 0.00 69 1009.3
20260503221422 56 250 3.0 12.0 0.00 0.00 0.00 68 1009.2
20260503221310 56 157 5.0 12.0 0.00 0.00 0.00 68 1009.2
20260503221221 56 161 6.0 12.0 0.00 0.00 0.00 68 1009.2
20260503221112 56 142 6.0 12.0 0.00 0.00 0.00 67 1009.2
20260503221003 56 150 5.0 12.0 0.00 0.00 0.00 68 1009.2
20260503220914 56 120 5.0 12.0 0.00 0.00 0.00 68 1009.3
20260503220805 56 168 6.0 12.0 0.00 0.00 0.00 68 1009.3
20260503220716 56 194 6.0 13.0 0.00 0.00 0.00 69 1009.4
20260503220606 56 150 6.0 11.0 0.00 0.00 0.00 69 1009.4
20260503220522 56 170 6.0 11.0 0.00 0.00 0.00 69 1009.4
20260503220432 56 142 5.0 11.0 0.00 0.00 0.00 69 1009.4
20260503220322 56 217 4.0 11.0 0.00 0.00 0.00 70 1009.4
20260503220230 56 136 5.0 11.0 0.00 0.00 0.00 69 1009.5
20260503220100 55 90 5.0 11.0 0.00 0.00 0.00 69 1009.4
20260503220021 55 220 5.0 12.0 0.00 0.00 0.00 68 1009.4
20260503215911 56 142 5.0 12.0 0.00 0.00 0.00 69 1009.6
20260503215803 56 91 4.0 12.0 0.00 0.00 0.00 69 1009.5
20260503215713 56 149 4.0 12.0 0.00 0.00 0.00 69 1009.4
20260503215604 56 161 4.0 12.0 0.00 0.00 0.00 70 1009.5
20260503215518 56 150 4.0 12.0 0.00 0.00 0.00 70 1009.5
20260503215409 55 298 4.0 12.0 0.00 0.00 0.00 70 1009.7
20260503215320 55 157 5.0 12.0 0.00 0.00 0.00 69 1009.5
20260503215230 55 157 5.0 12.0 0.00 0.00 0.00 69 1009.5
20260503215140 55 154 4.0 12.0 0.00 0.00 0.00 70 1009.6
20260503215010 55 194 3.0 11.0 0.00 0.00 0.00 70 1009.5
20260503214920 55 340 4.0 16.0 0.00 0.00 0.00 69 1009.6
20260503214831 55 223 5.0 16.0 0.00 0.00 0.00 69 1009.6
20260503214700 55 160 7.0 16.0 0.00 0.00 0.00 69 1009.5
20260503214610 55 149 6.0 16.0 0.00 0.00 0.00 70 1009.6
20260503214536 55 151 5.0 16.0 0.00 0.00 0.00 70 1009.6
20260503214406 55 170 5.0 16.0 0.00 0.00 0.00 70 1009.6
20260503214317 55 161 6.0 16.0 0.00 0.00 0.00 70 1009.6
20260503214207 55 176 5.0 16.0 0.00 0.00 0.00 69 1009.6
20260503214118 55 233 6.0 16.0 0.00 0.00 0.00 69 1009.6
20260503214008 55 155 5.0 14.0 0.00 0.00 0.00 70 1009.7
20260503213919 55 152 5.0 14.0 0.00 0.00 0.00 71 1009.7
20260503213809 54 153 5.0 14.0 0.00 0.00 0.00 72 1009.7
20260503213721 54 164 5.0 14.0 0.00 0.00 0.00 73 1009.7
20260503213615 54 184 5.0 14.0 0.00 0.00 0.00 72 1009.7
20260503213505 54 153 5.0 11.0 0.00 0.00 0.00 70 1009.7
20260503213416 54 146 5.0 11.0 0.00 0.00 0.00 70 1009.7
20260503213310 54 154 6.0 13.0 0.00 0.00 0.00 70 1009.6
20260503213218 54 168 6.0 13.0 0.00 0.00 0.00 71 1009.7
20260503213109 54 138 5.0 13.0 0.00 0.00 0.00 71 1009.8
20260503213031 54 208 5.0 13.0 0.00 0.00 0.00 72 1009.7
20260503212902 54 169 6.0 13.0 0.00 0.00 0.00 72 1009.7
20260503212812 54 261 5.0 13.0 0.00 0.00 0.00 72 1009.7
20260503212707 53 141 5.0 13.0 0.00 0.00 0.00 72 1009.8
20260503212617 53 148 5.0 13.0 0.00 0.00 0.00 72 1009.7
20260503212527 53 159 5.0 13.0 0.00 0.00 0.00 72 1009.8
20260503212438 53 286 5.0 12.0 0.00 0.00 0.00 72 1009.9
20260503212308 53 130 6.0 12.0 0.00 0.00 0.00 72 1009.8
20260503212218 53 149 5.0 12.0 0.00 0.00 0.00 73 1009.8
20260503212109 53 150 3.0 11.0 0.00 0.00 0.00 72 1010.0
20260503212019 53 313 4.0 11.0 0.00 0.00 0.00 72 1010.0
20260503211910 53 281 5.0 11.0 0.00 0.00 0.00 72 1009.9
20260503211805 53 249 6.0 11.0 0.00 0.00 0.00 72 1009.9
20260503211717 53 230 5.0 11.0 0.00 0.00 0.00 72 1009.8
20260503211528 53 155 4.0 10.0 0.00 0.00 0.00 72 1010.0
20260503211418 53 152 4.0 11.0 0.00 0.00 0.00 72 1010.0
20260503211309 53 194 3.0 11.0 0.00 0.00 0.00 73 1010.0
20260503211219 53 129 3.0 11.0 0.00 0.00 0.00 74 1010.1
20260503211110 53 150 3.0 11.0 0.00 0.00 0.00 73 1010.0
20260503211000 53 167 4.0 11.0 0.00 0.00 0.00 73 1010.0
20260503210915 53 139 6.0 11.0 0.00 0.00 0.00 73 1010.0
20260503210825 53 189 5.0 11.0 0.00 0.00 0.00 73 1010.1
20260503210736 53 173 5.0 11.0 0.00 0.00 0.00 73 1010.1
20260503210648 53 187 5.0 15.0 0.00 0.00 0.00 73 1010.1
20260503210538 53 168 4.0 15.0 0.00 0.00 0.00 73 1010.0
20260503210427 53 167 3.0 15.0 0.00 0.00 0.00 73 1010.1
20260503210337 53 159 3.0 15.0 0.00 0.00 0.00 73 1010.1
20260503210249 53 248 3.0 15.0 0.00 0.00 0.00 74 1010.1
20260503210159 52 233 4.0 15.0 0.00 0.00 0.00 74 1010.1
20260503210120 52 32 4.0 15.0 0.00 0.00 0.00 74 1010.1
20260503205948 52 150 5.0 15.0 0.00 0.00 0.00 73 1010.2
20260503205838 52 213 6.0 15.0 0.00 0.00 0.00 73 1010.0
20260503205726 52 261 4.0 11.0 0.00 0.00 0.00 74 1010.2
20260503205641 52 140 4.0 10.0 0.00 0.00 0.00 73 1010.2
20260503205552 52 161 5.0 10.0 0.00 0.00 0.00 73 1010.2
20260503205441 52 311 5.0 9.0 0.00 0.00 0.00 73 1010.2
20260503205330 52 175 6.0 11.0 0.00 0.00 0.00 73 1010.3
20260503205240 52 157 5.0 12.0 0.00 0.00 0.00 74 1010.3
20260503205129 52 251 5.0 14.0 0.00 0.00 0.00 74 1010.4
20260503205020 52 221 4.0 14.0 0.00 0.00 0.00 74 1010.3
20260503204930 52 155 4.0 14.0 0.00 0.00 0.00 74 1010.3
20260503204841 52 141 4.0 14.0 0.00 0.00 0.00 74 1010.3
20260503204711 52 212 4.0 14.0 0.00 0.00 0.00 73 1010.4
20260503204602 52 137 6.0 14.0 0.00 0.00 0.00 73 1010.3
20260503204526 52 155 7.0 14.0 0.00 0.00 0.00 73 1010.5
20260503204415 52 188 7.0 14.0 0.00 0.00 0.00 74 1010.5
20260503204305 52 260 6.0 14.0 0.00 0.00 0.00 73 1010.4
20260503204216 52 167 5.0 14.0 0.00 0.00 0.00 74 1010.4
20260503204107 52 254 4.0 11.0 0.00 0.00 0.00 74 1010.5
20260503204018 52 105 4.0 11.0 0.00 0.00 0.00 74 1010.5
20260503203908 52 107 3.0 10.0 0.00 0.00 0.00 75 1010.5
20260503203818 52 292 4.0 10.0 0.00 0.00 0.00 74 1010.5
20260503203710 52 189 5.0 10.0 0.00 0.00 0.00 74 1010.4
20260503203624 52 146 5.0 10.0 0.00 0.00 0.00 74 1010.4
20260503203535 52 163 4.0 9.0 0.00 0.00 0.00 75 1010.5
20260503203404 52 360 4.0 9.0 0.00 0.00 0.00 74 1010.5
20260503203316 52 162 4.0 9.0 0.00 0.00 0.00 74 1010.6
20260503203225 52 288 5.0 9.0 0.00 0.00 0.00 74 1010.6
20260503203115 52 198 5.0 9.0 0.00 0.00 0.00 74 1010.6
20260503203037 52 242 5.0 9.0 0.00 0.00 0.00 74 1010.5
20260503202907 52 154 4.0 9.0 0.00 0.00 0.00 74 1010.6
20260503202817 52 53 4.0 9.0 0.00 0.00 0.00 74 1010.6
20260503202709 52 153 5.0 9.0 0.00 0.00 0.00 74 1010.7
20260503202604 52 244 5.0 10.0 0.00 0.00 0.00 74 1010.7
20260503202514 52 150 4.0 10.0 0.00 0.00 0.00 74 1010.7
20260503202427 52 156 3.0 10.0 0.00 0.00 0.00 75 1010.7
20260503202337 52 149 3.0 10.0 0.00 0.00 0.00 75 1010.8
20260503202247 52 166 3.0 11.0 0.00 0.00 0.00 74 1010.9
20260503202136 52 261 3.0 11.0 0.00 0.00 0.00 74 1010.9
20260503202005 52 226 3.0 11.0 0.00 0.00 0.00 74 1010.9
20260503201917 52 219 3.0 11.0 0.00 0.00 0.00 74 1011.0
20260503201808 52 269 4.0 11.0 0.00 0.00 0.00 74 1011.0
20260503201703 52 162 3.0 12.0 0.00 0.00 0.00 74 1011.1
20260503201614 52 125 3.0 12.0 0.00 0.00 0.00 74 1011.0
20260503201535 52 108 4.0 12.0 0.00 0.00 0.00 74 1011.0
20260503201424 52 300 5.0 12.0 0.00 0.00 0.00 74 1011.0
20260503201335 52 217 3.0 12.0 0.00 0.00 0.00 74 1011.1
20260503201204 52 329 4.0 12.0 0.00 0.00 0.00 74 1011.0